Wenatchee, WA
on Sunday, February 3, 2013

Sunday
Previous Day Next Day
Daily Summary
 ActualAverageRecord
Temperature
Mean Temperature °F 30°F  
Max Temperature 34°F 36°F 57°F (1962)
Min Temperature 28°F 23°F -15°F (1996)
Degree Days
Heating Degree Days 34 35  
Month to date heating degree days 108 105  
Since 1 July heating degree days 4051 4362  
Cooling Degree Days 0 0  
Month to date cooling degree days 0 0  
Year to date cooling degree days 0 0  
Moisture
Dew Point 27°F   
Average Humidity 88    
Maximum Humidity 93    
Minimum Humidity 80    
Precipitation
Precipitation 0.00 in 0.05 in 0.70 in (1998)
Month to date precipitation 0.00 0.16  
Year to date precipitation 1.46 2.03  
Snow
Snow 0.00 in 0.40 in in ()
Month to date snowfall 0.0 1.0  
Since 1 July snowfall 43.8 41.4  
Snow Depth 4.00 in   
Wind
Wind Speed 2 mph   
Max Wind Speed 6 mph   
Max Gust Speed mph   
Visibility 3 miles   
Events Fog   

Key: T is trace of precipitation, MM is missing value
Source: NWS Daily Summary
Time(PST)TemperatureDew PointHumidity Pressure Visibility Wind DirectionWind SpeedGust SpeedPrecipitationEvents Conditions
12:55 AM 26.1°F 23.0°F 88% 30.29 in 0.2 miles WNW 4.6 mph - N/A Fog Light Freezing Fog
1:55 AM 26.1°F 23.0°F 88% 30.30 in 0.2 miles Calm Calm - N/A Fog Light Freezing Fog
2:55 AM 27.0°F 23.0°F 85% 30.28 in 0.2 miles Calm Calm - N/A Fog Light Freezing Fog
3:55 AM 28.0°F 23.0°F 81% 30.27 in 0.2 miles Calm Calm - N/A   Haze
4:55 AM 28.0°F 25.0°F 88% 30.26 in 0.2 miles Calm Calm - N/A Fog Light Freezing Fog
5:55 AM 28.9°F 25.0°F 85% 30.26 in 0.2 miles West 3.5 mph - N/A Fog Light Freezing Fog
6:55 AM 28.9°F 25.0°F 85% 30.25 in 0.2 miles Calm Calm - N/A Fog Light Freezing Fog
7:05 AM 30.2°F 24.8°F 80% 30.21 in 0.2 miles Calm Calm - N/A   Haze
7:55 AM 30.0°F 26.1°F 85% 30.25 in 0.2 miles West 3.5 mph - N/A Fog Light Freezing Fog
8:07 AM 30.2°F 26.6°F 86% 30.20 in 0.2 miles West 3.5 mph - N/A Fog Light Freezing Fog
8:42 AM 30.2°F 26.6°F 86% 30.21 in 0.2 miles West 4.6 mph - N/A Fog Light Freezing Fog
8:55 AM 30.0°F 26.1°F 85% 30.25 in 0.2 miles Calm Calm - N/A Fog Light Freezing Fog
9:55 AM 30.9°F 26.1°F 82% 30.25 in 0.2 miles Calm Calm - N/A   Haze
10:07 AM 30.2°F 26.6°F 86% 30.22 in 0.8 miles Calm Calm - N/A   Mist
10:19 AM 30.2°F 26.6°F 86% 30.22 in 0.2 miles ENE 3.5 mph - N/A   Haze
10:33 AM 30.2°F 26.6°F 86% 30.22 in 1.0 miles East 3.5 mph - N/A   Overcast
10:43 AM 30.2°F 26.6°F 86% 30.22 in 2.5 miles Calm Calm - N/A   Haze
10:55 AM 30.9°F 27.0°F 85% 30.26 in 4.0 miles Calm Calm - N/A   Overcast
11:55 AM 32.0°F 28.0°F 85% 30.24 in 10.0 miles East 4.6 mph - N/A   Overcast
12:25 PM 30.2°F 28.4°F 93% 30.18 in 4.0 miles SE 3.5 mph - N/A   Mostly Cloudy
12:55 PM 30.9°F 28.0°F 89% 30.21 in 6.0 miles East 5.8 mph - N/A   Overcast
1:46 PM 32.0°F 28.4°F 87% 30.17 in 6.0 miles SE 4.6 mph - N/A   Overcast
1:55 PM 32.0°F 28.0°F 85% 30.22 in 6.0 miles SE 4.6 mph - N/A   Overcast
2:55 PM 32.0°F 28.0°F 85% 30.21 in 6.0 miles SE 3.5 mph - N/A   Overcast
3:55 PM 32.0°F 28.9°F 88% 30.21 in 5.0 miles ENE 3.5 mph - N/A   Overcast
4:31 PM 30.2°F 28.4°F 93% 30.16 in 4.0 miles Calm Calm - N/A   Overcast
4:55 PM 30.9°F 28.9°F 92% 30.19 in 4.0 miles Calm Calm - N/A   Overcast
5:19 PM 30.2°F 28.4°F 93% 30.15 in 5.0 miles Calm Calm - N/A   Scattered Clouds
5:55 PM 30.9°F 28.0°F 89% 30.20 in 5.0 miles Calm Calm - N/A   Partly Cloudy
6:10 PM 30.2°F 28.4°F 93% 30.16 in 4.0 miles Calm Calm - N/A   Mostly Cloudy
6:41 PM 30.2°F 28.4°F 93% 30.16 in 4.0 miles Calm Calm - N/A   Scattered Clouds
6:55 PM 30.9°F 28.0°F 89% 30.20 in 4.0 miles Calm Calm - N/A   Mostly Cloudy
7:21 PM 30.2°F 28.4°F 93% 30.16 in 4.0 miles Calm Calm - N/A   Scattered Clouds
7:55 PM 30.9°F 28.9°F 92% 30.19 in 4.0 miles Calm Calm - N/A   Mostly Cloudy
8:55 PM 30.9°F 28.0°F 89% 30.17 in 3.0 miles Calm Calm - N/A   Mostly Cloudy
9:37 PM 30.2°F 28.4°F 93% 30.14 in 4.0 miles Calm Calm - N/A   Scattered Clouds
9:55 PM 30.9°F 28.0°F 89% 30.17 in 4.0 miles Calm Calm - N/A   Partly Cloudy
10:45 PM 30.2°F 28.4°F 93% 30.13 in 4.0 miles Calm Calm - N/A   Partly Cloudy
10:55 PM 30.0°F 28.0°F 92% 30.17 in 3.0 miles Calm Calm - N/A   Scattered Clouds
11:53 PM 30.2°F 26.6°F 86% 30.12 in 3.0 miles Calm Calm - N/A   Mostly Cloudy
11:55 PM 30.0°F 28.0°F 92% 30.16 in 3.0 miles Calm Calm - N/A   Mostly Cloudy
Moon Phase
Feb. 03 Feb. 10 Feb. 17 Feb. 25 Mar. 04
Sunrise:07:23 AM (PST) Moon Rise:12:58 AM (PST)2/3
Sunset:05:06 PM (PST) Moon Set:10:44 AM (PST)2/3

Copyright © 2014 The Weather Underground, Inc.